This demonstration page uses our WeatherBlox Daily Observations layout. Learn more.

Left ArrowRight Arrow

Hourly Observations for February 23, 2023

Temp ( °F °C ) Dew Point ( °F °C ) Humidity (%) Winds ( mph kmh ) Pressure ( in mb ) Visibility ( mi km ) Precip ( " mm )
12:53 am 00:53 Clear 68 20 55 12.8 63 63 SSE 8 13 29.72 1007 10 16 0.00 0.00
1:53 am 01:53 Clear 68 20 61 16.1 78 78 S 12 19 29.73 1007 10 16 0.00 0.00
2:53 am 02:53 Mostly Clear 68 20 63 17.2 84 84 S 9 15 29.74 1007 10 16 0.00 0.00
3:53 am 03:53 Mostly Cloudy 67 19.4 62 16.7 84 84 WNW 12 19 29.80 1009 8 13 0.00 0.00
4:00 am 04:00 Mostly Cloudy 67 19.4 63 17.2 87 87 WNW 17 28 29.82 1010 8 13 0.00 0.00
4:12 am 04:12 Mostly Cloudy 67 19.4 61 16.1 81 81 NW 15 24 29.83 1010 8 13 0.00 0.00
4:53 am 04:53 Partly Cloudy 65 18.3 58 14.4 78 78 WNW 9 15 29.84 1011 10 16 0.00 0.00
5:53 am 05:53 Mostly Cloudy 61 16.1 45 7.2 56 56 NNW 10 17 29.92 1013 10 16 0.00 0.00
6:53 am 06:53 Mostly Cloudy 55 12.8 41 5 59 59 NNW 16 26 29.97 1015 10 16 0.00 0.00
7:53 am 07:53 Mostly Cloudy 47 8.3 36 2.2 65 65 N 14 22 30.04 1017 10 16 0.00 0.00
8:53 am 08:53 Partly Cloudy 47 8.3 33 0.6 58 58 N 15 24 30.09 1019 10 16 0.00 0.00
9:53 am 09:53 Mostly Sunny 48 8.9 31 -0.6 51 51 N 16 26 30.12 1020 10 16 0.00 0.00
10:53 am 10:53 Mostly Sunny 50 10 31 -0.6 48 48 N 16 26 30.14 1021 10 16 0.00 0.00
11:53 am 11:53 Mostly Sunny 50 10 30 -1.1 46 46 N 13 20 30.16 1021 10 16 0.00 0.00
12:53 pm 12:53 Mostly Cloudy 52 11.1 30 -1.1 43 43 N 13 20 30.16 1021 10 16 0.00 0.00
1:53 pm 13:53 Mostly Cloudy 53 11.7 30 -1.1 41 41 NNW 14 22 30.14 1021 10 16 0.00 0.00
2:53 pm 14:53 Mostly Cloudy 55 12.8 30 -1.1 38 38 N 12 19 30.13 1020 10 16 0.00 0.00
3:53 pm 15:53 Mostly Cloudy 55 12.8 28 -2.2 35 35 N 12 19 30.14 1021 10 16 0.00 0.00
4:53 pm 16:53 Partly Cloudy 53 11.7 27 -2.8 36 36 N 12 19 30.14 1021 10 16 0.00 0.00
5:53 pm 17:53 Mostly Cloudy 52 11.1 27 -2.8 38 38 N 13 20 30.15 1021 10 16 0.00 0.00
6:53 pm 18:53 Mostly Cloudy 50 10 27 -2.8 40 40 N 9 15 30.16 1022 10 16 0.00 0.00
7:53 pm 19:53 Mostly Cloudy 49 9.4 26 -3.3 41 41 N 9 15 30.20 1023 10 16 0.00 0.00
8:53 pm 20:53 Mostly Cloudy 48 8.9 27 -2.8 44 44 N 9 15 30.21 1023 10 16 0.00 0.00
9:53 pm 21:53 Cloudy 48 8.9 26 -3.3 42 42 NNE 10 17 30.22 1023 10 16 0.00 0.00
10:53 pm 22:53 Cloudy 48 8.9 25 -3.9 40 40 NNE 8 13 30.22 1023 10 16 0.00 0.00
11:53 pm 23:53 Cloudy 48 8.9 26 -3.3 42 42 N 12 19 30.23 1024 10 16 0.00 0.00

Powered by AerisWeather